SCP
0 0 0 0 0 0 0 0 0 0 0 0 0 0 0 0 0 0 0 0 0 0 0 0 0 0 0 0 0 0 0 0 0 0 0 0 0 0 0 0 0 0 0 0
0 0 0 0 0 0 0 0 0 0 0 0 0 0 0 0 0 0 0 0 0 0 0 0 0 0 0 0 0 0 0 0 0 0 0 0 0 0 0 0 0 0 0 0
0 0 0 0 0 0 0 0 0 0 0 0 0 0 0 0 0 0 0 0 0 0 0 0 0 0 0 0 0 0 0 0 0 0 0 0 0 0 0 0 0 0 0 0
0 0 0 0 -0 0 0 0 0 0 0 0 0 0 0 0 0 0 0 0 0 0 0 0 0 0 0 0 0 0 0 0 0 0 0 0 0 0 0 0 0 0 0 0
0 0 0 0 0 0 0 0 0 0 0 0 0 0 0 0 0 0 0 0 0 0 0 0 0 0 0 0 0 0 0 0 0 0 0 0 0 0 0 0 0 0 0 0
0 0 0 0 0 0 0 0 0 0 0 0 0 0 0 0 0 0 0 0 0 0 0 0 0 0 0 0 0 0 0 0 0 0 0 0 0 0 0 0 0 0 0 0
0 0 0 0 0 0 0 0 0 0 0 0 0 0 0 0 0 0 0 0 0 0 0 0 0 0 0 0 0 0 0 0 0 0 0 0 0 0 0 0 0 0 0 0
0 0 0 0 0 0 0 0 0 0 0 0 0 0 -0 0 0 0 0 0 0 0 0 0 0 0 0 0 0 0 0 0 0 0 0 0 0 0 0 0 0 0 0 0
0 0 0 0 0 0 0 0 0 0 0 0 -0 -0 -0 -0 0 0 0 0 0 0 0 0 0 0 0 0 0 0 0 0 0 0 0 0 0 0 0 0 0 0 0 0
0 0 0 0 0 0 0 0 0 0 0 0 -0 -0 -0 0 0 0 0 0 0 0 0 0 0 0 0 0 0 0 0 0 0 0 0 0 0 0 0 0 0 0 0 0
0 0 0 0 0 0 0 0 0 0 0 0 0 0 0 0 0 0 0 0 0 0 0 0 0 0 0 0 0 0 0 0 0 0 0 0 0 0 0 0 0 0 0 0
0 0 0 0 0 0 0 0 0 0 0 0 0 0 0 0 0 0 0 0 0 0 0 0 0 0 0 0 0 0 0 0 0 0 0 0 0 0 0 0 0 0 0 0
0 0 0 0 0 0 0 0 0 0 0 0 0 0 0 0 0 0 0 0 0 0 0 0 0 0 0 0 0 0 0 0 0 0 0 0 0 0 0 0 0 0 0 0
0 0 0 0 0 0 0 0 0 0 0 0 0 0 0 0 0 0 0 0 0 0 0 0 0 0 0 0 0 0 0 0 0 0 0 0 0 0 0 0 0 0 0 0
0 0 0 0 0 0 0 0 0 0 0 0 0 0 0 0 0 0 0 0 0 0 0 0 0 0 0 0 0 0 0 0 0 0 0 0 0 0 0 0 0 0 0 0
0 0 0 0 0 0 0 0 0 0 0 0 0 0 0 0 0 0 0 0 0 0 0 0 0 0 0 0 0 0 0 0 0 0 0 0 0 0 0 0 0 0 0 0
0 0 0 0 0 0 0 0 0 0 0 0 0 0 0 0 0 0 0 0 0 0 0 0 0 0 0 0 0 0 0 0 0 0 0 0 0 0 0 0 0 0 0 0
-0 0 0 0 0 0 0 0 0 0 0 0 0 0 0 0 0 0 0 0 0 0 0 0 0 0 0 0 0 0 0 0 0 0 0 0 0 0 0 0 0 0 0 0
0 0 0 0 0 0 0 0 0 0 0 0 0 0 0 0 0 0 0 0 0 0 0 0 0 0 0 0 0 0 0 0 0 0 0 0 0 0 0 0 0 0 0 0
0 0 0 0 0 0 0 0 0 0 0 0 0 0 0 0 0 0 0 0 0 0 0 0 0 0 0 0 0 0 0 0 0 0 0 0 0 0 0 0 0 0 0 0
-0 0 0 0 0 0 0 0 0 0 0 0 0 0 0 0 0 0 0 0 0 0 0 0 0 0 0 0 0 0 0 0 0 0 0 0 0 0 0 0 0 0 0 0
0 0 0 0 0 0 0 0 0 0 0 0 0 0 0 0 0 0 0 0 0 0 0 0 0 0 0 0 0 0 0 0 0 0 0 0 0 0 0 0 0 0 0 0
0 0 0 0 0 0 0 0 0 0 0 0 0 0 0 0 0 0 0 0 0 0 0 0 0 0 0 0 0 0 0 0 0 0 0 0 0 0 0 0 0 0 0 0
0 0 0 0 0 0 0 0 0 0 0 0 0 0 0 0 0 0 0 0 0 0 0 0 0 0 0 0 0 0 0 0 0 0 0 0 0 0 0 0 0 0 0 0
0 0 0 0 0 0 0 0 0 0 0 0 0 0 0 0 0 0 0 0 0 0 0 0 0 0 0 0 0 0 0 0 0 0 0 0 0 0 0 0 0 0 0 0
0 0 0 -0 -0 0 0 0 0 0 0 0 0 0 0 0 0 0 0 0 0 0 0 0 0 0 0 0 0 0 0 0 0 0 0 0 0 0 0 0 0 0 0 0
0 0 0 -0 -0 -0 0 0 0 0 0 0 0 0 0 0 0 0 0 0 0 0 0 0 0 0 0 0 0 0 0 0 0 0 0 0 0 0 0 0 0 0 0 0
Wind_Speed
1 1 3 5 9 12 13 13 11 11 13 14 13 13 13 11 9 7 7 9 11 11 11 10 10 9 8 8 7 7 6 5 5 4 4 4 4 3 3 3 3 3 4 4
1 1 3 5 9 12 13 14 15 16 17 13 12 12 12 12 11 11 11 11 12 12 12 12 12 11 10 9 8 7 7 6 6 5 5 5 4 4 4 4 4 4 4 4
2 1 2 7 8 11 9 9 10 13 12 11 11 12 12 12 12 12 12 11 12 13 14 13 12 12 11 10 9 8 7 7 7 6 6 5 5 5 4 4 4 4 4 5
2 3 6 1 1 3 7 7 8 10 12 12 13 14 13 11 12 12 12 11 11 11 12 12 11 11 10 10 10 9 8 7 7 7 6 6 6 5 5 4 4 4 4 4
3 4 5 2 1 3 4 1 2 5 9 10 11 10 8 5 8 10 11 10 8 9 10 10 11 12 11 11 10 9 9 8 8 7 7 7 6 6 5 5 4 4 3 3
4 4 3 2 2 1 4 3 4 5 9 10 9 6 6 8 9 8 7 5 4 6 8 10 11 12 12 11 11 10 9 8 8 7 7 7 7 6 5 4 4 4 3 2
6 5 3 3 2 3 4 2 7 8 9 9 7 8 11 12 9 6 4 1 3 6 7 9 11 12 12 11 11 9 8 8 7 7 7 7 6 5 5 5 4 4 4 3
5 6 3 4 2 0 4 6 7 9 9 10 10 10 10 9 7 5 3 1 3 5 6 7 10 11 11 10 9 9 9 8 8 8 7 6 7 6 6 6 5 5 5 5
3 1 4 3 2 3 5 7 8 9 11 10 10 9 9 8 6 4 2 1 2 4 6 7 9 10 10 9 10 10 10 9 8 8 7 7 7 8 7 6 5 5 5 5
3 1 4 2 2 5 7 8 10 10 11 10 10 10 9 7 5 3 2 2 3 5 6 7 8 9 8 9 10 11 10 9 9 9 8 8 6 6 6 7 6 6 6 6
4 4 6 2 6 11 11 10 11 11 10 10 10 10 9 7 6 4 2 3 4 5 6 7 8 8 8 9 11 11 10 9 9 8 8 8 7 7 8 8 7 7 6 5
4 6 7 10 12 14 13 12 12 12 12 10 9 10 9 7 6 4 3 3 4 6 6 6 8 8 9 10 11 11 9 9 8 7 7 7 7 7 11 11 12 14 11 8
7 9 11 14 13 11 12 13 12 11 11 11 10 8 8 7 5 4 3 4 5 5 6 6 7 8 9 10 11 11 10 9 8 8 8 8 7 7 7 9 14 15 16 15
8 8 9 9 11 12 12 12 10 10 9 9 8 8 7 6 5 4 4 4 4 4 5 5 6 7 8 10 11 11 10 10 9 8 8 8 8 8 7 6 7 7 12 16
6 8 11 12 12 11 10 10 10 9 9 9 7 7 7 6 5 5 4 3 3 3 3 4 5 5 5 8 10 11 10 8 8 7 7 7 7 7 7 7 7 5 4 7
11 11 10 10 10 11 10 10 9 9 9 9 8 7 7 6 5 4 3 3 2 3 2 3 3 3 3 6 8 8 8 10 9 7 7 7 7 7 7 7 7 7 7 6
9 9 9 10 10 10 10 9 9 9 9 8 8 7 6 5 4 3 3 3 2 2 1 2 2 2 3 5 7 6 6 7 11 8 7 7 7 7 7 7 7 7 7 7
8 9 10 10 10 10 10 9 8 8 8 7 7 6 5 5 4 4 4 3 1 1 2 3 3 3 2 3 4 4 5 5 6 7 6 6 7 7 7 7 8 8 6 6
8 9 9 9 8 8 7 7 7 7 7 6 6 5 5 4 4 4 3 2 1 1 3 4 5 3 2 2 2 3 4 4 5 5 5 7 7 6 7 7 7 7 6 6
8 8 8 8 7 6 7 6 6 6 6 6 5 5 4 4 4 3 2 1 1 2 4 5 4 3 2 2 2 2 3 3 4 4 4 5 5 6 6 6 7 6 6 7
8 8 8 8 7 7 6 6 6 6 6 5 4 5 5 5 4 3 2 2 2 4 4 5 3 3 2 2 2 2 2 3 3 3 4 4 5 5 5 6 6 6 6 6
8 7 8 8 8 7 6 5 5 6 5 5 4 4 4 4 4 3 2 2 3 6 4 3 3 4 4 3 1 2 2 3 3 3 3 4 4 5 5 5 6 6 6 6
7 7 8 8 8 8 8 6 6 5 6 5 5 4 4 4 3 3 3 2 3 6 4 3 5 6 5 2 1 2 2 3 3 3 3 4 4 4 5 5 5 5 5 5
8 8 8 7 7 7 8 6 5 5 6 6 5 5 4 3 3 2 3 5 6 6 3 4 6 6 4 1 2 2 2 2 3 3 3 3 4 4 4 4 5 5 5 6
7 8 7 7 7 6 7 6 6 5 5 5 5 5 4 3 3 3 3 4 6 5 3 4 6 5 3 2 2 2 2 2 3 3 3 3 3 4 4 4 4 4 5 5
6 6 6 7 7 6 5 4 4 4 4 4 4 3 3 3 3 3 3 3 4 4 3 3 3 4 2 2 2 3 3 3 3 3 3 3 4 4 4 4 5 5 5 5
7 6 6 6 5 5 4 4 5 5 4 4 5 3 3 3 3 3 3 3 3 3 3 2 2 2 3 3 3 3 3 3 3 3 3 3 4 4 4 5 4 4 4 5
Wind_Direction
52 79 163 201 209 209 216 230 245 258 260 265 274 285 291 292 285 265 240 219 207 200 195 189 186 183 180 175 173 174 177 181 178 169 162 159 155 146 134 124 114 109 106 102
164 181 216 237 231 224 231 238 247 262 271 277 286 289 284 278 271 260 248 231 218 208 200 196 192 186 181 179 175 176 180 179 170 171 168 165 158 149 139 129 117 111 109 106
185 157 245 250 235 222 220 226 237 253 270 297 297 289 284 280 271 259 253 238 222 211 205 200 194 186 182 177 171 177 181 176 175 177 174 168 160 155 149 136 126 119 112 107
180 196 234 61 67 226 228 249 252 266 284 295 297 298 290 282 275 267 256 244 229 216 206 197 185 179 174 170 173 177 180 180 179 179 174 166 163 159 150 143 138 129 122 119
205 238 265 288 178 199 209 228 327 288 302 314 316 298 280 289 289 276 267 253 239 218 199 183 176 171 168 171 175 179 183 182 180 178 174 171 169 162 154 149 141 137 133 129
203 241 242 78 52 204 212 187 36 334 323 327 325 309 327 341 322 304 290 264 228 190 175 173 170 166 170 174 178 184 184 180 177 177 176 174 169 160 156 154 151 152 144 149
222 240 265 358 344 189 227 30 350 330 325 324 310 293 311 318 318 317 319 300 168 165 169 168 163 166 174 177 184 180 172 169 171 175 175 169 162 159 157 160 162 173 180 196
213 226 231 40 98 102 353 342 326 323 324 319 307 304 310 318 323 331 344 71 149 157 156 157 165 170 176 180 174 166 166 169 172 173 170 167 166 165 171 175 182 193 206 215
249 305 43 35 76 34 350 325 325 321 319 317 311 311 316 318 319 321 319 179 166 162 155 163 175 180 180 174 166 165 169 175 176 175 175 176 179 180 182 189 200 205 211 220
282 311 340 326 23 350 340 324 318 315 313 312 309 310 312 312 309 299 269 205 182 175 176 180 185 189 183 169 168 171 177 179 179 181 182 185 189 194 196 197 204 210 213 219
288 328 334 337 344 336 328 322 319 319 315 311 308 305 307 305 301 290 258 212 196 199 198 193 188 192 183 174 174 179 182 182 184 188 190 193 200 206 208 214 214 211 214 215
302 330 310 302 317 322 318 318 318 315 313 314 309 303 302 297 294 283 262 227 211 212 211 201 194 195 189 183 183 184 187 189 190 191 194 198 202 212 224 226 228 231 234 230
287 297 292 291 299 308 309 310 311 308 306 307 308 305 299 295 293 283 264 241 232 228 221 210 202 203 196 190 191 195 197 194 192 194 197 200 203 209 215 222 229 233 233 231
288 295 291 297 303 307 305 307 308 305 306 306 307 308 304 299 297 288 279 271 257 243 231 220 214 214 203 196 198 203 206 202 198 199 200 202 205 209 212 210 209 221 227 230
302 301 292 297 299 303 307 307 307 308 311 313 311 310 308 305 301 300 303 299 270 244 233 225 224 226 210 202 205 208 208 207 205 204 203 206 206 207 211 215 219 219 207 220
309 305 303 306 308 312 315 313 310 309 312 311 310 310 308 303 301 304 312 311 276 258 251 241 243 248 225 211 210 213 214 211 204 205 203 205 206 208 211 214 218 219 219 213
307 310 314 312 313 314 314 314 311 310 310 308 309 310 308 304 301 310 323 322 300 297 309 289 284 285 245 221 215 214 214 210 206 210 210 207 207 211 214 216 219 222 223 211
289 291 296 299 302 306 310 314 315 316 314 313 313 311 309 307 305 312 318 315 295 303 344 331 321 306 273 241 225 220 213 211 207 212 211 209 212 214 216 220 224 227 227 217
298 297 299 299 299 299 300 307 313 315 317 318 317 313 312 313 315 317 319 312 299 308 345 340 332 320 298 275 242 219 217 214 213 215 212 215 216 215 217 222 226 225 221 213
299 298 299 298 297 293 294 298 303 307 314 319 318 316 319 324 323 319 317 325 348 332 323 327 330 322 312 293 254 229 223 221 220 219 215 217 220 221 221 223 226 226 223 220
298 297 296 296 296 293 290 290 294 300 309 314 313 316 318 322 324 319 306 305 343 335 327 331 329 320 306 296 254 239 232 229 227 227 223 224 227 228 227 226 226 226 225 224
294 292 292 293 294 294 292 286 284 288 295 299 302 308 312 316 320 319 306 308 323 324 324 319 314 312 313 307 266 251 246 240 235 231 231 232 232 234 234 233 232 230 228 227
291 289 288 287 289 292 292 285 279 279 281 285 288 292 296 299 304 302 302 319 317 317 317 307 314 318 319 303 270 257 251 248 245 243 242 242 241 241 242 240 237 234 233 232
292 291 289 289 287 285 285 284 280 274 274 275 273 273 277 285 285 273 283 303 311 313 308 316 325 331 333 308 285 271 262 258 258 257 254 250 248 246 245 244 242 240 239 238
286 287 286 286 283 279 279 282 281 274 272 270 270 263 256 255 266 284 291 297 307 312 309 319 330 335 334 317 305 293 281 272 272 270 264 261 258 255 252 249 247 246 244 243
279 281 280 276 275 278 277 273 271 272 272 274 274 264 256 252 257 266 274 284 293 302 305 309 317 324 321 316 312 308 302 297 289 278 272 270 266 263 260 258 256 253 252 251
277 276 276 277 273 266 264 262 264 267 264 264 272 267 256 253 255 260 266 274 283 289 293 300 307 310 310 309 307 305 302 298 291 285 280 273 269 267 266 263 262 260 258 256